Weather History for Bishop, CA

Change the Weather History Date:

Saturday, June 15, 2013

  Actual Average Record
Temperature  
Mean Temperature 71 °F 71 °F  
Max Temperature 93 °F 92 °F 107 °F (2000)
Min Temperature 49 °F 51 °F 37 °F (1992)
Degree Days  
Heating Degree Days 0 0  
Month to date heating degree days 0 17  
Since 1 June heating degree days 0 17  
Since 1 July heating degree days 3851 4175  
Cooling Degree Days 6 7  
Month to date cooling degree days 163 83  
Year to date cooling degree days 249 151  
Since 1 June cooling degree days 163 83  
Growing Degree Days 20 (Base 50)    
Moisture  
Dew Point 19 °F    
Average Humidity 22    
Maximum Humidity 39    
Minimum Humidity 4    
Precipitation  
Precipitation 0.00 in 0.01 in 0.04 in (1962)
Month to date precipitation T 0.11  
Year to date precipitation 0.47 2.99  
Snow  
Snow 0.00 in 0.00 in - ()
Month to date snowfall 0.0 0.0  
Since 1 June snowfall 0.0 0.0  
Since 1 July snowfall 2.8 6.8  
Snow Depth 0.00 in    
Sea Level Pressure  
Sea Level Pressure 29.76 in    
Wind  
Wind Speed 7 mph (WSW)    
Max Wind Speed 22 mph    
Max Gust Speed 30 mph    
Visibility 10 miles    
Events      
T = Trace of Precipitation, MM = Missing Value Source: NWS Daily Summary

Daily Weather History Graph

Daily Weather History Graph

Search for Another Location

Airport:

Trip Planner

Search our weather history database for the weather conditions in past years. The results will help you decide how hot, cold, wet, or windy it might be!

Date:

Astronomy

Jun. 15, 2013 Rise Set
Actual Time 5:32 AM PDT 8:15 PM PDT
Civil Twilight 5:01 AM PDT 8:47 PM PDT
Nautical Twilight 4:22 AM PDT 9:25 PM PDT
Astronomical Twilight 3:38 AM PDT 10:09 PM PDT
Moon 12:04 PM PDT (6/15) 12:00 AM PDT (6/15)
Length of Visible Light 15h 45m
Length of Day
14h 43m
Waxing Crescent, 40% of the Moon is Illuminated
Jun 15
Waxing Crescent
Jun 16
First Quarter
Jun 23
Full
Jun 29
Last Quarter
Jul 8
New

Hourly Weather History & Observations

Time (PDT) Temp. Dew Point Humidity Pressure Visibility Wind Dir Wind Speed Gust Speed Precip Events Conditions
12:56 AM 63.0 °F 21.0 °F 20% 29.78 in 10.0 mi NNW 6.9 mph - N/A   Clear
1:56 AM 61.0 °F 19.9 °F 21% 29.77 in 10.0 mi North 6.9 mph - N/A   Clear
2:56 AM 60.1 °F 21.0 °F 22% 29.78 in 10.0 mi West 4.6 mph - N/A   Clear
3:56 AM 57.9 °F 21.9 °F 25% 29.78 in 10.0 mi WNW 5.8 mph - N/A   Clear
4:56 AM 51.1 °F 23.0 °F 33% 29.80 in 10.0 mi Calm Calm - N/A   Clear
5:56 AM 48.9 °F 25.0 °F 39% 29.82 in 10.0 mi NNW 3.5 mph - N/A   Clear
6:56 AM 60.1 °F 27.0 °F 28% 29.82 in 10.0 mi North 6.9 mph - N/A   Clear
7:56 AM 66.0 °F 23.0 °F 20% 29.82 in 10.0 mi Calm Calm - N/A   Clear
8:56 AM 73.9 °F 24.1 °F 16% 29.80 in 10.0 mi NW 4.6 mph - N/A   Clear
9:56 AM 77.0 °F 23.0 °F 13% 29.80 in 10.0 mi Calm Calm - N/A   Clear
10:56 AM 80.1 °F 19.9 °F 11% 29.78 in 10.0 mi West 3.5 mph - N/A   Clear
11:56 AM 87.1 °F 8.1 °F 5% 29.75 in 10.0 mi South 13.8 mph 20.7 mph N/A   Clear
12:56 PM 90.0 °F 10.9 °F 5% 29.74 in 10.0 mi South 15.0 mph 26.5 mph N/A   Clear
1:56 PM 90.0 °F 7.0 °F 4% 29.73 in 10.0 mi SSE 17.3 mph 25.3 mph N/A   Clear
2:56 PM 91.0 °F 5.0 °F 4% 29.71 in 10.0 mi SSE 13.8 mph 23.0 mph N/A   Clear
3:56 PM 91.9 °F 7.0 °F 4% 29.70 in 10.0 mi SE 15.0 mph 25.3 mph N/A   Clear
4:56 PM 91.9 °F 10.9 °F 5% 29.70 in 10.0 mi South 12.7 mph - N/A   Clear
5:56 PM 91.0 °F 12.9 °F 6% 29.70 in 10.0 mi South 13.8 mph 20.7 mph N/A   Clear
6:56 PM 89.1 °F 14.0 °F 6% 29.69 in 10.0 mi SSE 12.7 mph - N/A   Clear
7:56 PM 84.9 °F 17.1 °F 8% 29.70 in 10.0 mi Variable 3.5 mph - N/A   Clear
8:56 PM 77.0 °F 25.0 °F 15% 29.73 in 10.0 mi North 9.2 mph - N/A   Clear
9:56 PM 72.0 °F 25.0 °F 17% 29.77 in 10.0 mi Calm Calm - N/A   Clear
10:56 PM 68.0 °F 25.0 °F 20% 29.80 in 10.0 mi Variable 3.5 mph - N/A   Clear
11:56 PM 68.0 °F 25.0 °F 20% 29.80 in 10.0 mi West 6.9 mph - N/A   Clear